Cloud_Cover
86 54 37 23 100 100 100 100 100 100 100 100 93 100 100 100 100 100 100 100 100 100
100 100 100 100 100 100 100 100 100 98 100 100 100 100 100 100 100 100 100 100 100 100
100 100 100 100 100 100 98 100 100 100 100 100 100 100 100 100 100 100 100 100 100 100
100 100 100 100 100 100 100 100 100 100 100 100 100 100 100 100 100 100 100 100 100 100
100 100 100 100 100 100 100 100 100 100 100 100 100 100 100 100 100 100 100 100 100 100
100 100 100 100 100 100 100 100 100 100 100 100 100 100 100 100 100 100 100 100 100 100
64 97 100 100 96 98 84 73 69 100 97 100 100 100 100 100 100 100 100 100 100 100
5 5 18 16 7 2 11 63 100 99 57 96 98 100 100 100 100 100 100 100 100 100
0 0 0 0 0 0 0 0 0 0 14 100 100 100 100 100 100 100 100 100 100 100
1 0 0 0 0 0 0 0 0 0 0 0 0 1 4 6 20 45 29 40 3 72
16 5 5 5 5 4 0 0 0 0 0 0 0 0 0 0 0 0 0 0 0 0
4 1 0 0 0 0 0 0 0 0 0 0 0 0 0 0 0 0 0 0 0 0
0 0 0 0 0 0 0 0 0 0 0 0 0 0 0 5 3 2 0 0 0 3
1 4 2 1 0 2 0 0 0 0 0 0 0 0 1 5 5 17 6 5 5 5